Home   Weather   Geretsried   Past weeks

Flag for Germany Past Weather in Geretsried, Bavaria, Germany — Yesterday and Last 2 Weeks

Now
28 °F

Clear.


Feels Like: 28 °F
Forecast: 24 / 43 °F
Wind: 1 mph from North

Location: Oberpfaffenhofen

Current Time: Dec 5, 2016 at 5:44:37 pm

Latest Report: Dec 5, 2016 at 4:50 pm


Visibility: 10 mi

Pressure: 30.30 "Hg (28.06 "Hg at 609m altitude)

Humidity: 100%

Dew Point: 28 °F

Location of GeretsriedLocation

Past Weather in Geretsried — Graph

°F

Geretsried Temperature Yesterday

Maximum temperature yesterday: 28 °F (at 2:20 pm)
Minimum temperature yesterday: 27 °F (at 5:20 pm)
Average temperature yesterday: 28 °F

High & Low Weather Summary for the Past Weeks

 TemperatureHumidityPressure
High64 °F (Nov 21, 12:20 pm)100% (Nov 22, 6:50 pm)30.48 "Hg (Nov 22, 6:50 pm)
Low18 °F (Nov 30, 7:20 am)37% (Dec 1, 1:20 pm)29.68 "Hg (Nov 21, 10:50 am)
Average39 °F81%30.13 "Hg
* Reported Nov 20 4:50 pm — Dec 5 4:20 pm, Geretsried, Weather by CustomWeather, © 2016

Note: Actual official high and low records may vary slightly from our data, if they occured in-between our weather recording intervals... More about our weather records

Advertising

Geretsried Weather History for the Previous 24 Hours

Scroll right to see more
 ConditionsComfort  
Time TempWeatherWind HumidityBarometerVisibility
4:20 pm
Mon, Dec 5
32 °FSunny.2 mph87%30.30 "Hg10 mi
3:50 pm34 °FSunny.2 mph81%30.30 "Hg10 mi
3:20 pm34 °FSunny.2 mph81%30.30 "Hg10 mi
2:50 pm36 °FSunny.No wind75%30.30 "Hg10 mi
2:20 pm36 °FFog.No wind81%30.30 "Hg3 mi
1:50 pm32 °FIce fog.2 mph87%30.30 "Hg3 mi
1:20 pm30 °FIce fog.5 mph93%30.30 "Hg3 mi
12:50 pm30 °FIce fog.3 mph93%30.30 "Hg3 mi
12:20 pm28 °FIce fog.1 mph100%30.30 "Hg3 mi
11:50 am28 °FIce fog.2 mph100%30.33 "Hg2 mi
11:20 am28 °FIce fog.No wind100%30.33 "Hg2 mi
10:50 am27 °FIce fog.2 mph100%30.33 "Hg1 mi
10:20 am27 °FIce fog.2 mph100%30.33 "Hg1 mi
9:50 am27 °FIce fog.1 mph100%30.33 "Hg1 mi
9:20 am27 °FIce fog.No wind100%30.33 "Hg1 mi
8:50 am27 °FIce fog.1 mph100%30.30 "Hg1 mi
8:20 am27 °FIce fog.2 mph100%30.30 "Hg1 mi
7:50 am25 °FIce fog.2 mph100%30.30 "Hg1 mi
7:20 am27 °FIce fog.2 mph100%30.30 "Hg1 mi
6:50 am27 °FIce fog.2 mph100%30.30 "Hg1 mi
5:50 pm
Sun, Dec 4
27 °FIce fog.6 mph100%30.30 "Hg2 mi
5:20 pm27 °FIce fog.6 mph100%30.30 "Hg2 mi
Weather by CustomWeather, © 2016

See weather overviewHow to use our weather pages